Portada
METAR-TAF:

METAR-TAF

Aeroports :

Telfer, Austràlia

latitud: 21-42-54S, longitud: 122-13-43E, altitud: 296 m

Observació

L'informe es va fer fa 35 minuts, a les 06:28 UTC
Vent 22 kt del Nord-Est
Temperatura 35°C
Humitat 34%
Pressió 1008 hPa
Visibilitat 10 km o més
Cel ennuvolat a una alçada de 8800 ft
Cel ennuvolat a una alçada de 11000 ft

METAR: YTEF 030628Z AUTO 05022KT 9999 // BKN088 BKN110 35/17 Q1008

Hora: 15:03 (07:03 UTC)


TAF: manca

Observacions i pronòstics meteorològics de més de 4000 aeroports (METAR i TAF).

Les estacions disponibles són els punts grocs i vermells al mapa.

Posi el ratolí al punt desitjat per veure el nom de l'estació.

Feu clic per veure les observacions i els pronòstics meteorològics.

Per canviar el mapa: feu clic els botons verds amb una creu de color negre per apropar; al botó verd amb un guió per allunyar la imatge; o en les fletxes verdes per a mapes adjacents.


METAR-TAF: